Weather in Siena

Italy     43°19′06″N   11°19′53″E
temp.,
°C
wind,
m/s
gust,
m/s
humid.,
%
clouds,
%
prec.,
mm/h
press.,
hPa
HPBL,
m
17 may, tue
tue1723:00+14wnw11665 0.0 102111
02:00+13nw11711 0.0 102011
05:00+12nw117629 0.0 102010
08:00+17n11655 0.0 1020118
11:00+23nw234726 0.0 1019884
14:00+25nnw334573 0.0 10181291
17:00+25nw444819 0.0 10171271
20:00+19nw337114 0.0 101751
18 may, wed
wed1823:00+15nw11735 0.0 101811
02:00+13nnw11765 0.0 101911
05:00+13nne11805 0.0 101911
08:00+18ene12700 0.0 1020130
11:00+25e45465 0.0 10201151
14:00+28e45375 0.0 10201908
17:00+27ene55432 0.0 10191482
20:00+21ene411650 0.0 1021336
19 may, thu
thu1923:00+16e22670 0.0 102225
02:00+14ene12772 0.0 102316
05:00+13ne11803 0.0 102317
08:00+17ene23630 0.0 1024175
11:00+24ene34390 0.0 1025803
14:00+27e33295 0.0 10241387
17:00+27e33295 0.0 10231147
20:00+21sse22565 0.0 102418
20 may, fri
fri2023:00+15sw11805 0.0 102611
02:00+14s118412 0.0 102611
05:00+13se118783 0.0 102611
08:00+18sse117351 0.0 1027169
11:00+25ssw125057 0.0 10261028
14:00+28wsw244166 0.0 10252025
17:00+27wsw44426 0.0 10231743
20:00+20wsw23655 0.0 102371
21 may, sat
sat2123:00+15wsw11785 0.0 102411
02:00+13ssw11785 0.0 102311
05:00+13se007931 0.0 102210
08:00+17sse11645 0.0 1022129
11:00+24nw24465 0.0 10201095
14:00+27nw553781 0.0 10181565
17:00+26wnw55380 0.0 10171254
20:00+19nw37630 0.0 1017138